• In Uzbekistan
  • List of Countries
  • For 7 days
  • Water Temperature
  • Weather Map
  • Weather Widgets
  • user-avatar
    Login

    Hourly Weather Ischgl

    Today, 18 February, Tuesday

    Time Temperature Precipitation Wind Pressure Humidity
    00:00 -6°C° 0.8 mm 2 mps 574 mmHg 97%
    01:00 -6°C° 0 mm 2 mps 574 mmHg 97%
    02:00 -7°C° 0.5 mm 2 mps 573 mmHg 97%
    03:00 -7°C° 0.5 mm 2 mps 573 mmHg 96%
    04:00 -7°C° 0.5 mm 1 mps 573 mmHg 96%
    05:00 -8°C° 0.1 mm 1 mps 573 mmHg 96%
    06:00 -9°C° 0.1 mm 1 mps 572 mmHg 96%
    07:00 -13°C° 0 mm 3 mps 572 mmHg 96%
    08:00 -10°C° 0 mm 2 mps 573 mmHg 94%
    09:00 -9°C° 0 mm 2 mps 574 mmHg 91%
    10:00 -7°C° 0 mm 1 mps 575 mmHg 89%
    11:00 -7°C° 0 mm 2 mps 575 mmHg 87%
    12:00 -7°C° 0 mm 2 mps 575 mmHg 85%
    13:00 -6°C° 0 mm 2 mps 575 mmHg 83%
    14:00 -6°C° 0 mm 2 mps 575 mmHg 82%
    15:00 -4°C° 0 mm 1 mps 574 mmHg 80%
    16:00 -6°C° 0 mm 1 mps 574 mmHg 79%
    17:00 -8°C° 0 mm 1 mps 573 mmHg 84%
    18:00 -10°C° 0 mm 1 mps 572 mmHg 88%
    19:00 -12°C° 0 mm 1 mps 571 mmHg 92%
    20:00 -12°C° 0 mm 1 mps 571 mmHg 90%
    21:00 -12°C° 0 mm 1 mps 571 mmHg 89%
    22:00 -13°C° 0 mm 1 mps 571 mmHg 87%
    23:00 -13°C° 0 mm 1 mps 570 mmHg 85%

    Tomorrow, 19 February, Wednesday

    Time Temperature Precipitation Wind Pressure Humidity
    00:00 -13°C° 0 mm 1 mps 570 mmHg 83%
    01:00 -13°C° 0 mm 1 mps 570 mmHg 81%
    02:00 -13°C° 0 mm 1 mps 569 mmHg 81%
    03:00 -14°C° 0 mm 1 mps 569 mmHg 82%
    04:00 -14°C° 0 mm 1 mps 568 mmHg 82%
    05:00 -13°C° 0 mm 1 mps 568 mmHg 81%
    06:00 -13°C° 0 mm 1 mps 568 mmHg 81%
    07:00 -12°C° 0 mm 1 mps 569 mmHg 80%
    08:00 -11°C° 0 mm 1 mps 569 mmHg 77%
    09:00 -9°C° 0 mm 1 mps 570 mmHg 75%
    10:00 -9°C° 0 mm 2 mps 571 mmHg 72%
    11:00 -8°C° 0.4 mm 2 mps 571 mmHg 75%
    12:00 -8°C° 0.4 mm 2 mps 571 mmHg 79%
    13:00 -8°C° 0.4 mm 3 mps 571 mmHg 83%
    14:00 -9°C° 0.6 mm 3 mps 571 mmHg 83%
    15:00 -9°C° 0.6 mm 3 mps 571 mmHg 84%
    16:00 -10°C° 0.6 mm 3 mps 571 mmHg 84%
    17:00 -12°C° 0.5 mm 3 mps 571 mmHg 88%
    18:00 -12°C° 0.5 mm 2 mps 571 mmHg 92%
    19:00 -13°C° 0.5 mm 2 mps 571 mmHg 95%
    20:00 -11°C° 0.2 mm 1 mps 570 mmHg 95%
    21:00 -12°C° 0.2 mm 1 mps 570 mmHg 95%
    22:00 -13°C° 0.2 mm 1 mps 570 mmHg 94%
    23:00 -13°C° 0 mm 1 mps 570 mmHg 92%

    Day after tomorrow, 20 February, Thursday

    Time Temperature Precipitation Wind Pressure Humidity
    00:00 -15°C° 0 mm 2 mps 570 mmHg 89%
    01:00 -16°C° 0 mm 2 mps 569 mmHg 86%
    02:00 -15°C° 0 mm 2 mps 569 mmHg 81%
    03:00 -15°C° 0 mm 2 mps 570 mmHg 76%
    04:00 -12°C° 0 mm 1 mps 570 mmHg 71%
    05:00 -12°C° 0 mm 1 mps 570 mmHg 71%
    06:00 -11°C° 0 mm 1 mps 570 mmHg 71%
    07:00 -11°C° 0 mm 1 mps 570 mmHg 71%
    08:00 -9°C° 0 mm 1 mps 571 mmHg 71%
    09:00 -7°C° 0 mm 1 mps 572 mmHg 70%
    10:00 -3°C° 0 mm 1 mps 574 mmHg 69%
    11:00 -3°C° 0 mm 1 mps 574 mmHg 73%
    12:00 -2°C° 0 mm 1 mps 574 mmHg 78%
    13:00 -1°C° 0 mm 1 mps 574 mmHg 83%
    14:00 -1°C° 0 mm 1 mps 574 mmHg 83%
    15:00 -1°C° 0 mm 1 mps 574 mmHg 84%
    16:00 0°C° 0 mm 1 mps 573 mmHg 84%
    17:00 -2°C° 0 mm 1 mps 573 mmHg 80%
    18:00 -4°C° 0 mm 1 mps 572 mmHg 77%
    19:00 -7°C° 0 mm 2 mps 571 mmHg 73%
    20:00 -6°C° 0 mm 1 mps 571 mmHg 69%
    21:00 -7°C° 0 mm 1 mps 571 mmHg 64%
    22:00 -7°C° 0 mm 1 mps 571 mmHg 60%
    23:00 -7°C° 0 mm 1 mps 571 mmHg 61%

    21 February, Friday

    Time Temperature Precipitation Wind Pressure Humidity
    00:00 -8°C° 0 mm 1 mps 571 mmHg 61%
    01:00 -8°C° 0 mm 1 mps 571 mmHg 61%
    02:00 -10°C° 0 mm 2 mps 571 mmHg 68%
    03:00 -10°C° 0 mm 2 mps 571 mmHg 75%
    04:00 -10°C° 0 mm 2 mps 571 mmHg 82%
    05:00 -10°C° 0.1 mm 2 mps 571 mmHg 81%
    06:00 -10°C° 0.1 mm 2 mps 572 mmHg 81%
    07:00 -9°C° 0.1 mm 1 mps 572 mmHg 81%
    14:00 -4°C° 0 mm 2 mps 576 mmHg 90%
    15:00 -6°C° 0 mm 2 mps 576 mmHg 87%
    16:00 -6°C° 0 mm 2 mps 576 mmHg 86%
    17:00 -7°C° 0 mm 1 mps 575 mmHg 86%
    18:00 -9°C° 0 mm 1 mps 575 mmHg 86%
    19:00 -11°C° 0 mm 1 mps 574 mmHg 86%
    20:00 -10°C° 0 mm 1 mps 574 mmHg 75%
    21:00 -10°C° 0 mm 1 mps 575 mmHg 65%
    22:00 -10°C° 0 mm 1 mps 575 mmHg 54%
    23:00 -10°C° 0 mm 1 mps 575 mmHg 49%

    22 February, Saturday

    Time Temperature Precipitation Wind Pressure Humidity
    00:00 -9°C° 0 mm 1 mps 576 mmHg 44%
    01:00 -9°C° 0 mm 1 mps 576 mmHg 39%
    02:00 -9°C° 0 mm 1 mps 576 mmHg 38%
    03:00 -8°C° 0 mm 1 mps 576 mmHg 37%
    04:00 -8°C° 0 mm 1 mps 576 mmHg 35%
    05:00 -8°C° 0 mm 1 mps 576 mmHg 35%
    06:00 -8°C° 0 mm 1 mps 576 mmHg 35%
    07:00 -8°C° 0 mm 1 mps 577 mmHg 34%
    08:00 -4°C° 0 mm 1 mps 578 mmHg 43%
    09:00 -2°C° 0 mm 1 mps 579 mmHg 51%
    10:00 0°C° 0 mm 1 mps 580 mmHg 59%
    11:00 0°C° 0 mm 1 mps 580 mmHg 68%
    12:00 +1°C° 0 mm 1 mps 580 mmHg 77%
    13:00 +2°C° 0 mm 1 mps 580 mmHg 86%
    14:00 +2°C° 0 mm 1 mps 580 mmHg 81%
    15:00 +2°C° 0 mm 1 mps 580 mmHg 75%
    16:00 +2°C° 0 mm 1 mps 580 mmHg 70%
    17:00 0°C° 0 mm 1 mps 579 mmHg 63%
    18:00 -1°C° 0 mm 1 mps 579 mmHg 56%
    19:00 -3°C° 0 mm 1 mps 578 mmHg 50%
    20:00 -3°C° 0 mm 1 mps 578 mmHg 49%
    21:00 -3°C° 0 mm 1 mps 578 mmHg 48%
    22:00 -3°C° 0 mm 1 mps 579 mmHg 47%
    23:00 -3°C° 0 mm 1 mps 578 mmHg 46%

    23 February, Sunday

    Time Temperature Precipitation Wind Pressure Humidity
    00:00 -5°C° 0 mm 2 mps 578 mmHg 44%
    01:00 -5°C° 0 mm 2 mps 578 mmHg 43%
    02:00 -5°C° 0 mm 2 mps 578 mmHg 40%
    03:00 -5°C° 0 mm 2 mps 578 mmHg 37%
    04:00 -5°C° 0 mm 2 mps 578 mmHg 34%
    05:00 -3°C° 0 mm 1 mps 578 mmHg 33%
    06:00 -3°C° 0 mm 1 mps 578 mmHg 32%
    07:00 -3°C° 0 mm 1 mps 578 mmHg 31%
    08:00 -1°C° 0 mm 1 mps 579 mmHg 42%
    09:00 0°C° 0 mm 1 mps 579 mmHg 53%
    10:00 +2°C° 0 mm 1 mps 580 mmHg 64%
    11:00 +2°C° 0 mm 1 mps 580 mmHg 71%
    12:00 +3°C° 0 mm 1 mps 580 mmHg 79%
    13:00 +3°C° 0 mm 1 mps 580 mmHg 86%
    14:00 +3°C° 0 mm 1 mps 579 mmHg 80%
    15:00 +3°C° 0 mm 1 mps 579 mmHg 74%
    16:00 +3°C° 0 mm 1 mps 579 mmHg 68%
    17:00 +1°C° 0 mm 1 mps 578 mmHg 62%
    18:00 0°C° 0 mm 1 mps 578 mmHg 55%
    19:00 -3°C° 0 mm 2 mps 577 mmHg 49%
    20:00 -4°C° 0 mm 2 mps 577 mmHg 49%
    21:00 -4°C° 0 mm 2 mps 577 mmHg 49%
    22:00 -4°C° 0 mm 2 mps 577 mmHg 49%
    23:00 -4°C° 0 mm 2 mps 577 mmHg 50%
    Show more